Preview of NWS' New Version of Forecast
This preview is not operational and should not be used for support decisions.

Regional Weather Roundup (RWR)

Issued by Gray - Portland, ME (GYX)

                            
813 
ASUS41 KGYX 191710
RWRGYX
WEATHER ROUNDUP FOR MAINE AND NEW HAMPSHIRE
NATIONAL WEATHER SERVICE GRAY ME
1200 PM EST MON FEB 19 2018

MEZ002-005-006-010-012-015-018-020-021-024-026-027-029-191800-
MAINE
  
CITY           SKY/WX    TMP DP  RH WIND       PRES   REMARKS
PORTLAND       CLOUDY    40  28  62 S17G24    30.44F                  
SANFORD        FAIR      41  25  53 S12G20    30.43F                  
BAR HARBOR     PTSUNNY   39  32  76 S15       30.50F                  
WISCASSET      FAIR      41  30  65 S9G20     30.47F                  
ROCKLAND       FAIR      41  33  73 S15G22    30.48F                  
FRYEBURG       FAIR      43  24  47 SW10G23   30.39F                  
LEWISTONAUBURN FAIR      41  24  51 S17       30.41F                  
AUGUSTA        FAIR      40  25  55 S13G23    30.41F                  
WATERVILLE     FAIR      41  26  55 S10G22    30.36F                  
BANGOR         FAIR      40  28  62 S15G28    30.43F                  
GREENVILLE       N/A     34  22  61 S13G30    30.29F                  
MILLINOCKET    FAIR      38  25  59 MISG      30.37F                  
HOULTON        FAIR      37  21  52 S15G30    30.35F                  
PRESQUE ISLE   FAIR      36  20  52 S26G32    30.29F HAZE             
FRENCHVILLE    FAIR      32  17  54 S20G26    30.24F                  
CARIBOU        FAIR      35  19  52 S14G26    30.29F                  
$$

NHZ002-005-008-009-011-012-014-191800-
NEW HAMPSHIRE
  
CITY           SKY/WX    TMP DP  RH WIND       PRES   REMARKS
PORTSMOUTH     PTSUNNY   43  26  50 S14G20    30.43F                  
ROCHESTER      FAIR      41  27  57 S10G20    30.42F                  
NASHUA         FAIR      44  30  57 VRB7      30.43F                  
MANCHESTER     PTSUNNY   43  28  55 S14       30.40F                  
CONCORD        FAIR      39  27  62 SE14      30.41F                  
LACONIA        FAIR      39  23  52 CALM      30.40F                  
PLYMOUTH       FAIR      40  23  49 NE3       30.39F                  
BERLIN         FAIR      40  21  46 VRB6      30.30F                  
WHITEFIELD     FAIR      43  26  51 SW8       30.31F                  
JAFFREY        FAIR      42  26  53 SW16G32   30.40F                  
KEENE          FAIR      43  28  55 S20G25    30.40F                  
LEBANON        FAIR      40  25  55 S18       30.35F                  
MT WASHINGTON  FOG       21  21 100 SW47G61     N/A  VSB 1/8 WCI  -1  
$$

VTZ005-007-008-191800-
VERMONT
  
CITY           SKY/WX    TMP DP  RH WIND       PRES   REMARKS
ST JOHNSBURY     N/A     38  24  57 MISG      30.31F                  
MONTPELIER     FAIR      37  23  56 S13       30.33F                  
BURLINGTON     PTSUNNY   41  25  53 S21G29    30.26F                  
$$

MAZ007-012-024-CTZ003-RIZ002-NYZ038-NYZ072-191800-
SOUTHERN NEW ENGLAND AND NY
  
CITY           SKY/WX    TMP DP  RH WIND       PRES   REMARKS
BOSTON         PTSUNNY   45  32  60 SW22      30.48F                  
WORCESTER      FAIR      41  29  62 S17G25    30.42F                  
NANTUCKET      FAIR      45  39  79 S15       30.52F                  
PROVIDENCE     PTSUNNY   45  37  73 S8        30.51F                  
HARTFORD       PTSUNNY   44  32  62 S15       30.45F                  
ALBANY         PTSUNNY   42  28  57 S20G28    30.37F                  
NEW YORK CITY  CLOUDY    47  36  65 S13       30.47F                  
$$

ANZ081-ANZ082-ANZ150-NHZ014-MEZ023>029-191800-
COASTAL MARINE OBSERVATIONS
  
STATION/POSITION TIME  TEMP    WIND        PRES    WAVE
                       AIR SEA DIR/SP/G            HT/PER
                 (UTC) (F)     (DEG/KT/KT) (MB)    (FT/S)
MOUNT DESERT ROC 1700   42     190/ 26/ 30 1033.0F
MATINICUS ROCK   1700   41     210/ 27/ 29 1032.2F
ISLE OF SHOALS   1700   40     180/ 21/ 23 1030.8F
JEFFREYS LEDGE   1606      42                N/A     6/ 5
GEORGES BANK BUO 1550   41 59              1032.7   14/11
$$

.............KEY..............
   WCI - WIND CHILL
   TC  - TEMPERATURE IN CELSIUS
   VSB - VISIBILITY IN MILES
   HX  - HEAT INDEX
   FAIR- INDICATES FEW OR NO CLOUDS BELOW 12,000 FT, WITH NO 
         SIGNIFICANT WEATHER AND/OR OBSTRUCTIONS TO VISIBILITY.